station,date_time,water_elev
364238089115601,05/04/2011 17:44,308.76
364238089115601,05/04/2011 17:45,308.76
364238089115601,05/04/2011 17:46,308.76
364238089115601,05/04/2011 17:47,308.76
364238089115601,05/04/2011 17:48,308.76
364238089115601,05/04/2011 17:49,308.77
364238089115601,05/04/2011 17:50,308.77
364238089115601,05/04/2011 17:51,308.77
364238089115601,05/04/2011 17:52,308.77
364238089115601,05/04/2011 17:53,308.77
364238089115601,05/04/2011 17:54,308.77
364238089115601,05/04/2011 17:55,308.77
364238089115601,05/04/2011 17:56,308.78
364238089115601,05/04/2011 17:57,308.78
364238089115601,05/04/2011 17:58,308.78
364238089115601,05/04/2011 17:59,308.79
364238089115601,05/04/2011 18:00,308.79
364238089115601,05/04/2011 18:01,308.79
364238089115601,05/04/2011 18:02,308.79
364238089115601,05/04/2011 18:03,308.79
364238089115601,05/04/2011 18:04,308.79
364238089115601,05/04/2011 18:05,308.79
364238089115601,05/04/2011 18:06,308.8
364238089115601,05/04/2011 18:07,308.8
364238089115601,05/04/2011 18:08,308.81
364238089115601,05/04/2011 18:09,308.8
364238089115601,05/04/2011 18:10,308.8
364238089115601,05/04/2011 18:11,308.81
364238089115601,05/04/2011 18:12,308.8
364238089115601,05/04/2011 18:13,308.8
364238089115601,05/04/2011 18:14,308.81
364238089115601,05/04/2011 18:15,308.81
364238089115601,05/04/2011 18:16,308.8
364238089115601,05/04/2011 18:17,308.8
364238089115601,05/04/2011 18:18,308.81
364238089115601,05/04/2011 18:19,308.81
364238089115601,05/04/2011 18:20,308.81
364238089115601,05/04/2011 18:21,308.82
364238089115601,05/04/2011 18:22,308.82
364238089115601,05/04/2011 18:23,308.81
364238089115601,05/04/2011 18:24,308.81
364238089115601,05/04/2011 18:25,308.82
364238089115601,05/04/2011 18:26,308.82
364238089115601,05/04/2011 18:27,308.83
364238089115601,05/04/2011 18:28,308.82
364238089115601,05/04/2011 18:29,308.82
364238089115601,05/04/2011 18:30,308.82
364238089115601,05/04/2011 18:31,308.83
364238089115601,05/04/2011 18:32,308.82
364238089115601,05/04/2011 18:33,308.82
364238089115601,05/04/2011 18:34,308.84
364238089115601,05/04/2011 18:35,308.82
364238089115601,05/04/2011 18:36,308.82
364238089115601,05/04/2011 18:37,308.83
364238089115601,05/04/2011 18:38,308.83
364238089115601,05/04/2011 18:39,308.83
364238089115601,05/04/2011 18:40,308.83
364238089115601,05/04/2011 18:41,308.83
364238089115601,05/04/2011 18:42,308.84
364238089115601,05/04/2011 18:43,308.84
364238089115601,05/04/2011 18:44,308.84
364238089115601,05/04/2011 18:45,308.84
364238089115601,05/04/2011 18:46,308.84
364238089115601,05/04/2011 18:47,308.85
364238089115601,05/04/2011 18:48,308.84
364238089115601,05/04/2011 18:49,308.85
364238089115601,05/04/2011 18:50,308.85
364238089115601,05/04/2011 18:51,308.85
364238089115601,05/04/2011 18:52,308.85
364238089115601,05/04/2011 18:53,308.86
364238089115601,05/04/2011 18:54,308.85
364238089115601,05/04/2011 18:55,308.86
364238089115601,05/04/2011 18:56,308.85
364238089115601,05/04/2011 18:57,308.86
364238089115601,05/04/2011 18:58,308.86
364238089115601,05/04/2011 18:59,308.86
364238089115601,05/04/2011 19:00,308.86
364238089115601,05/04/2011 19:01,308.86
364238089115601,05/04/2011 19:02,308.87
364238089115601,05/04/2011 19:03,308.86
364238089115601,05/04/2011 19:04,308.87
364238089115601,05/04/2011 19:05,308.87
364238089115601,05/04/2011 19:06,308.87
364238089115601,05/04/2011 19:07,308.87
364238089115601,05/04/2011 19:08,308.87
364238089115601,05/04/2011 19:09,308.87
364238089115601,05/04/2011 19:10,308.87
364238089115601,05/04/2011 19:11,308.87
364238089115601,05/04/2011 19:12,308.87
364238089115601,05/04/2011 19:13,308.88
364238089115601,05/04/2011 19:14,308.88
364238089115601,05/04/2011 19:15,308.87
364238089115601,05/04/2011 19:16,308.88
364238089115601,05/04/2011 19:17,308.88
364238089115601,05/04/2011 19:18,308.88
364238089115601,05/04/2011 19:19,308.88
364238089115601,05/04/2011 19:20,308.88
364238089115601,05/04/2011 19:21,308.88
364238089115601,05/04/2011 19:22,308.88
364238089115601,05/04/2011 19:23,308.88
364238089115601,05/04/2011 19:24,308.89
364238089115601,05/04/2011 19:25,308.88
364238089115601,05/04/2011 19:26,308.89
364238089115601,05/04/2011 19:27,308.89
364238089115601,05/04/2011 19:28,308.89
364238089115601,05/04/2011 19:29,308.89
364238089115601,05/04/2011 19:30,308.89
364238089115601,05/04/2011 19:31,308.89
364238089115601,05/04/2011 19:32,308.9
364238089115601,05/04/2011 19:33,308.89
364238089115601,05/04/2011 19:34,308.89
364238089115601,05/04/2011 19:35,308.9
364238089115601,05/04/2011 19:36,308.9
364238089115601,05/04/2011 19:37,308.9
364238089115601,05/04/2011 19:38,308.9
364238089115601,05/04/2011 19:39,308.9
364238089115601,05/04/2011 19:40,308.91
364238089115601,05/04/2011 19:41,308.91
364238089115601,05/04/2011 19:42,308.91
364238089115601,05/04/2011 19:43,308.91
364238089115601,05/04/2011 19:44,308.91
364238089115601,05/04/2011 19:45,308.91
364238089115601,05/04/2011 19:46,308.91
364238089115601,05/04/2011 19:47,308.92
364238089115601,05/04/2011 19:48,308.91
364238089115601,05/04/2011 19:49,308.92
364238089115601,05/04/2011 19:50,308.92
364238089115601,05/04/2011 19:51,308.92
364238089115601,05/04/2011 19:52,308.92
364238089115601,05/04/2011 19:53,308.92
364238089115601,05/04/2011 19:54,308.92
364238089115601,05/04/2011 19:55,308.92
364238089115601,05/04/2011 19:56,308.92
364238089115601,05/04/2011 19:57,308.92
364238089115601,05/04/2011 19:58,308.92
364238089115601,05/04/2011 19:59,308.92
364238089115601,05/04/2011 20:00,308.93
364238089115601,05/04/2011 20:01,308.93
364238089115601,05/04/2011 20:02,308.94
364238089115601,05/04/2011 20:03,308.93
364238089115601,05/04/2011 20:04,308.93
364238089115601,05/04/2011 20:05,308.94
364238089115601,05/04/2011 20:06,308.94
364238089115601,05/04/2011 20:07,308.94
364238089115601,05/04/2011 20:08,308.94
364238089115601,05/04/2011 20:09,308.94
364238089115601,05/04/2011 20:10,308.95
364238089115601,05/04/2011 20:11,308.94
364238089115601,05/04/2011 20:12,308.95
364238089115601,05/04/2011 20:13,308.94
364238089115601,05/04/2011 20:14,308.94
364238089115601,05/04/2011 20:15,308.94
364238089115601,05/04/2011 20:16,308.95
364238089115601,05/04/2011 20:17,308.95
364238089115601,05/04/2011 20:18,308.95
364238089115601,05/04/2011 20:19,308.95
364238089115601,05/04/2011 20:20,308.94
364238089115601,05/04/2011 20:21,308.95
364238089115601,05/04/2011 20:22,308.95
364238089115601,05/04/2011 20:23,308.95
364238089115601,05/04/2011 20:24,308.95
364238089115601,05/04/2011 20:25,308.95
364238089115601,05/04/2011 20:26,308.95
364238089115601,05/04/2011 20:27,308.95
364238089115601,05/04/2011 20:28,308.96
364238089115601,05/04/2011 20:29,308.95
364238089115601,05/04/2011 20:30,308.95
364238089115601,05/04/2011 20:31,308.95
364238089115601,05/04/2011 20:32,308.96
364238089115601,05/04/2011 20:33,308.95
364238089115601,05/04/2011 20:34,308.96
364238089115601,05/04/2011 20:35,308.96
364238089115601,05/04/2011 20:36,308.96
364238089115601,05/04/2011 20:37,308.96
364238089115601,05/04/2011 20:38,308.97
364238089115601,05/04/2011 20:39,308.96
364238089115601,05/04/2011 20:40,308.97
364238089115601,05/04/2011 20:41,308.96
364238089115601,05/04/2011 20:42,308.97
364238089115601,05/04/2011 20:43,308.97
364238089115601,05/04/2011 20:44,308.97
364238089115601,05/04/2011 20:45,308.97
364238089115601,05/04/2011 20:46,308.97
364238089115601,05/04/2011 20:47,308.97
364238089115601,05/04/2011 20:48,308.97
364238089115601,05/04/2011 20:49,308.97
364238089115601,05/04/2011 20:50,308.97
364238089115601,05/04/2011 20:51,308.96
364238089115601,05/04/2011 20:52,308.98
364238089115601,05/04/2011 20:53,308.96
364238089115601,05/04/2011 20:54,308.97
364238089115601,05/04/2011 20:55,308.97
364238089115601,05/04/2011 20:56,308.97
364238089115601,05/04/2011 20:57,308.97
364238089115601,05/04/2011 20:58,308.97
364238089115601,05/04/2011 20:59,308.98
364238089115601,05/04/2011 21:00,308.97
364238089115601,05/04/2011 21:01,308.98
364238089115601,05/04/2011 21:02,308.97
364238089115601,05/04/2011 21:03,308.98
364238089115601,05/04/2011 21:04,308.98
364238089115601,05/04/2011 21:05,308.98
364238089115601,05/04/2011 21:06,308.98
364238089115601,05/04/2011 21:07,308.99
364238089115601,05/04/2011 21:08,308.99
364238089115601,05/04/2011 21:09,308.99
364238089115601,05/04/2011 21:10,308.99
364238089115601,05/04/2011 21:11,308.99
364238089115601,05/04/2011 21:12,309
364238089115601,05/04/2011 21:13,308.99
364238089115601,05/04/2011 21:14,308.99
364238089115601,05/04/2011 21:15,309
364238089115601,05/04/2011 21:16,308.99
364238089115601,05/04/2011 21:17,308.99
364238089115601,05/04/2011 21:18,308.99
364238089115601,05/04/2011 21:19,308.99
364238089115601,05/04/2011 21:20,309
364238089115601,05/04/2011 21:21,309
364238089115601,05/04/2011 21:22,309
364238089115601,05/04/2011 21:23,309.01
364238089115601,05/04/2011 21:24,309
364238089115601,05/04/2011 21:25,309
364238089115601,05/04/2011 21:26,309
364238089115601,05/04/2011 21:27,309.01
364238089115601,05/04/2011 21:28,309
364238089115601,05/04/2011 21:29,309
364238089115601,05/04/2011 21:30,309
364238089115601,05/04/2011 21:31,309
364238089115601,05/04/2011 21:32,309.01
364238089115601,05/04/2011 21:33,309.01
364238089115601,05/04/2011 21:34,309.01
364238089115601,05/04/2011 21:35,309.01
364238089115601,05/04/2011 21:36,309.01
364238089115601,05/04/2011 21:37,309.01
364238089115601,05/04/2011 21:38,309.02
364238089115601,05/04/2011 21:39,309.02
364238089115601,05/04/2011 21:40,309.02
364238089115601,05/04/2011 21:41,309.02
364238089115601,05/04/2011 21:42,309.02
364238089115601,05/04/2011 21:43,309.02
364238089115601,05/04/2011 21:44,309.02
364238089115601,05/04/2011 21:45,309.02
364238089115601,05/04/2011 21:46,309.02
364238089115601,05/04/2011 21:47,309.02
364238089115601,05/04/2011 21:48,309.02
364238089115601,05/04/2011 21:49,309.02
364238089115601,05/04/2011 21:50,309.02
364238089115601,05/04/2011 21:51,309.02
364238089115601,05/04/2011 21:52,309.02
364238089115601,05/04/2011 21:53,309.02
364238089115601,05/04/2011 21:54,309.02
364238089115601,05/04/2011 21:55,309.02
364238089115601,05/04/2011 21:56,309.02
364238089115601,05/04/2011 21:57,309.02
364238089115601,05/04/2011 21:58,309.02
364238089115601,05/04/2011 21:59,309.03
364238089115601,05/04/2011 22:00,309.02
364238089115601,05/04/2011 22:01,309.03
364238089115601,05/04/2011 22:02,309.02
364238089115601,05/04/2011 22:03,309.03
364238089115601,05/04/2011 22:04,309.02
364238089115601,05/04/2011 22:05,309.03
364238089115601,05/04/2011 22:06,309.02
364238089115601,05/04/2011 22:07,309.03
364238089115601,05/04/2011 22:08,309.03
364238089115601,05/04/2011 22:09,309.03
364238089115601,05/04/2011 22:10,309.04
364238089115601,05/04/2011 22:11,309.04
364238089115601,05/04/2011 22:12,309.03
364238089115601,05/04/2011 22:13,309.04
364238089115601,05/04/2011 22:14,309.04
364238089115601,05/04/2011 22:15,309.04
364238089115601,05/04/2011 22:16,309.04
364238089115601,05/04/2011 22:17,309.04
364238089115601,05/04/2011 22:18,309.04
364238089115601,05/04/2011 22:19,309.05
364238089115601,05/04/2011 22:20,309.04
364238089115601,05/04/2011 22:21,309.05
364238089115601,05/04/2011 22:22,309.05
364238089115601,05/04/2011 22:23,309.05
364238089115601,05/04/2011 22:24,309.05
364238089115601,05/04/2011 22:25,309.04
364238089115601,05/04/2011 22:26,309.04
364238089115601,05/04/2011 22:27,309.05
364238089115601,05/04/2011 22:28,309.05
364238089115601,05/04/2011 22:29,309.05
364238089115601,05/04/2011 22:30,309.05
364238089115601,05/04/2011 22:31,309.04
364238089115601,05/04/2011 22:32,309.05
364238089115601,05/04/2011 22:33,309.05
364238089115601,05/04/2011 22:34,309.05
364238089115601,05/04/2011 22:35,309.05
364238089115601,05/04/2011 22:36,309.05
364238089115601,05/04/2011 22:37,309.06
364238089115601,05/04/2011 22:38,309.05
364238089115601,05/04/2011 22:39,309.05
364238089115601,05/04/2011 22:40,309.05
364238089115601,05/04/2011 22:41,309.05
364238089115601,05/04/2011 22:42,309.05
364238089115601,05/04/2011 22:43,309.05
364238089115601,05/04/2011 22:44,309.06
364238089115601,05/04/2011 22:45,309.05
364238089115601,05/04/2011 22:46,309.05
364238089115601,05/04/2011 22:47,309.05
364238089115601,05/04/2011 22:48,309.04
364238089115601,05/04/2011 22:49,309.04
364238089115601,05/04/2011 22:50,309.05
364238089115601,05/04/2011 22:51,309.07
364238089115601,05/04/2011 22:52,309.04
364238089115601,05/04/2011 22:53,309.05
364238089115601,05/04/2011 22:54,309.05
364238089115601,05/04/2011 22:55,309.05
364238089115601,05/04/2011 22:56,309.06
364238089115601,05/04/2011 22:57,309.07
364238089115601,05/04/2011 22:58,309.05
364238089115601,05/04/2011 22:59,309.05
364238089115601,05/04/2011 23:00,309.05
364238089115601,05/04/2011 23:01,309.06
364238089115601,05/04/2011 23:02,309.06
364238089115601,05/04/2011 23:03,309.05
364238089115601,05/04/2011 23:04,309.05
364238089115601,05/04/2011 23:05,309.05
364238089115601,05/04/2011 23:06,309.05
364238089115601,05/04/2011 23:07,309.06
364238089115601,05/04/2011 23:08,309.06
364238089115601,05/04/2011 23:09,309.06
364238089115601,05/04/2011 23:10,309.07
364238089115601,05/04/2011 23:11,309.06
364238089115601,05/04/2011 23:12,309.06
364238089115601,05/04/2011 23:13,309.06
364238089115601,05/04/2011 23:14,309.06
364238089115601,05/04/2011 23:15,309.06
364238089115601,05/04/2011 23:16,309.06
364238089115601,05/04/2011 23:17,309.07
364238089115601,05/04/2011 23:18,309.06
364238089115601,05/04/2011 23:19,309.07
364238089115601,05/04/2011 23:20,309.08
364238089115601,05/04/2011 23:21,309.08
364238089115601,05/04/2011 23:22,309.07
364238089115601,05/04/2011 23:23,309.08
364238089115601,05/04/2011 23:24,309.08
364238089115601,05/04/2011 23:25,309.08
364238089115601,05/04/2011 23:26,309.08
364238089115601,05/04/2011 23:27,309.09
364238089115601,05/04/2011 23:28,309.09
364238089115601,05/04/2011 23:29,309.09
364238089115601,05/04/2011 23:30,309.08
364238089115601,05/04/2011 23:31,309.09
364238089115601,05/04/2011 23:32,309.08
364238089115601,05/04/2011 23:33,309.08
364238089115601,05/04/2011 23:34,309.09
364238089115601,05/04/2011 23:35,309.08
364238089115601,05/04/2011 23:36,309.1
364238089115601,05/04/2011 23:37,309.08
364238089115601,05/04/2011 23:38,309.09
364238089115601,05/04/2011 23:39,309.08
364238089115601,05/04/2011 23:40,309.09
364238089115601,05/04/2011 23:41,309.08
364238089115601,05/04/2011 23:42,309.08
364238089115601,05/04/2011 23:43,309.11
364238089115601,05/04/2011 23:44,309.09
364238089115601,05/04/2011 23:45,309.09
364238089115601,05/04/2011 23:46,309.09
364238089115601,05/04/2011 23:47,309.1
364238089115601,05/04/2011 23:48,309.1
364238089115601,05/04/2011 23:49,309.1
364238089115601,05/04/2011 23:50,309.1
364238089115601,05/04/2011 23:51,309.08
364238089115601,05/04/2011 23:52,309.08
364238089115601,05/04/2011 23:53,309.09
364238089115601,05/04/2011 23:54,309.09
364238089115601,05/04/2011 23:55,309.09
364238089115601,05/04/2011 23:56,309.08
364238089115601,05/04/2011 23:57,309.08
364238089115601,05/04/2011 23:58,309.07
364238089115601,05/04/2011 23:59,309.08
364238089115601,05/05/2011 00:00,309.1
364238089115601,05/05/2011 00:01,309.08
364238089115601,05/05/2011 00:02,309.1
364238089115601,05/05/2011 00:03,309.1
364238089115601,05/05/2011 00:04,309.09
364238089115601,05/05/2011 00:05,309.09
364238089115601,05/05/2011 00:06,309.1
364238089115601,05/05/2011 00:07,309.09
364238089115601,05/05/2011 00:08,309.1
364238089115601,05/05/2011 00:09,309.09
364238089115601,05/05/2011 00:10,309.08
364238089115601,05/05/2011 00:11,309.08
364238089115601,05/05/2011 00:12,309.09
364238089115601,05/05/2011 00:13,309.09
364238089115601,05/05/2011 00:14,309.1
364238089115601,05/05/2011 00:15,309.11
364238089115601,05/05/2011 00:16,309.08
364238089115601,05/05/2011 00:17,309.09
364238089115601,05/05/2011 00:18,309.1
364238089115601,05/05/2011 00:19,309.1
364238089115601,05/05/2011 00:20,309.1
364238089115601,05/05/2011 00:21,309.12
364238089115601,05/05/2011 00:22,309.1
364238089115601,05/05/2011 00:23,309.11
364238089115601,05/05/2011 00:24,309.13
364238089115601,05/05/2011 00:25,309.13
364238089115601,05/05/2011 00:26,309.13
364238089115601,05/05/2011 00:27,309.13
364238089115601,05/05/2011 00:28,309.13
364238089115601,05/05/2011 00:29,309.13
364238089115601,05/05/2011 00:30,309.14
364238089115601,05/05/2011 00:31,309.14
364238089115601,05/05/2011 00:32,309.14
364238089115601,05/05/2011 00:33,309.14
364238089115601,05/05/2011 00:34,309.14
364238089115601,05/05/2011 00:35,309.14
364238089115601,05/05/2011 00:36,309.13
364238089115601,05/05/2011 00:37,309.14
364238089115601,05/05/2011 00:38,309.13
364238089115601,05/05/2011 00:39,309.14
364238089115601,05/05/2011 00:40,309.13
364238089115601,05/05/2011 00:41,309.14
364238089115601,05/05/2011 00:42,309.15
364238089115601,05/05/2011 00:43,309.13
364238089115601,05/05/2011 00:44,309.13
364238089115601,05/05/2011 00:45,309.15
364238089115601,05/05/2011 00:46,309.14
364238089115601,05/05/2011 00:47,309.14
364238089115601,05/05/2011 00:48,309.15
364238089115601,05/05/2011 00:49,309.14
364238089115601,05/05/2011 00:50,309.15
364238089115601,05/05/2011 00:51,309.14
364238089115601,05/05/2011 00:52,309.14
364238089115601,05/05/2011 00:53,309.14
364238089115601,05/05/2011 00:54,309.15
364238089115601,05/05/2011 00:55,309.16
364238089115601,05/05/2011 00:56,309.15
364238089115601,05/05/2011 00:57,309.16
364238089115601,05/05/2011 00:58,309.17
364238089115601,05/05/2011 00:59,309.16
364238089115601,05/05/2011 01:00,309.16
364238089115601,05/05/2011 01:01,309.15
364238089115601,05/05/2011 01:02,309.17
364238089115601,05/05/2011 01:03,309.15
364238089115601,05/05/2011 01:04,309.17
364238089115601,05/05/2011 01:05,309.15
364238089115601,05/05/2011 01:06,309.16
364238089115601,05/05/2011 01:07,309.15
364238089115601,05/05/2011 01:08,309.16
364238089115601,05/05/2011 01:09,309.16
364238089115601,05/05/2011 01:10,309.15
364238089115601,05/05/2011 01:11,309.16
364238089115601,05/05/2011 01:12,309.16
364238089115601,05/05/2011 01:13,309.16
364238089115601,05/05/2011 01:14,309.16
364238089115601,05/05/2011 01:15,309.16
364238089115601,05/05/2011 01:16,309.17
364238089115601,05/05/2011 01:17,309.18
364238089115601,05/05/2011 01:18,309.17
364238089115601,05/05/2011 01:19,309.17
364238089115601,05/05/2011 01:20,309.18
364238089115601,05/05/2011 01:21,309.17
364238089115601,05/05/2011 01:22,309.18
364238089115601,05/05/2011 01:23,309.17
364238089115601,05/05/2011 01:24,309.17
364238089115601,05/05/2011 01:25,309.18
364238089115601,05/05/2011 01:26,309.18
364238089115601,05/05/2011 01:27,309.17
364238089115601,05/05/2011 01:28,309.17
364238089115601,05/05/2011 01:29,309.17
364238089115601,05/05/2011 01:30,309.16
364238089115601,05/05/2011 01:31,309.18
364238089115601,05/05/2011 01:32,309.18
364238089115601,05/05/2011 01:33,309.18
364238089115601,05/05/2011 01:34,309.18
364238089115601,05/05/2011 01:35,309.18
364238089115601,05/05/2011 01:36,309.18
364238089115601,05/05/2011 01:37,309.17
364238089115601,05/05/2011 01:38,309.19
364238089115601,05/05/2011 01:39,309.18
364238089115601,05/05/2011 01:40,309.19
364238089115601,05/05/2011 01:41,309.18
364238089115601,05/05/2011 01:42,309.19
364238089115601,05/05/2011 01:43,309.18
364238089115601,05/05/2011 01:44,309.18
364238089115601,05/05/2011 01:45,309.19
364238089115601,05/05/2011 01:46,309.18
364238089115601,05/05/2011 01:47,309.19
364238089115601,05/05/2011 01:48,309.19
364238089115601,05/05/2011 01:49,309.2
364238089115601,05/05/2011 01:50,309.19
364238089115601,05/05/2011 01:51,309.2
364238089115601,05/05/2011 01:52,309.19
364238089115601,05/05/2011 01:53,309.19
364238089115601,05/05/2011 01:54,309.18
364238089115601,05/05/2011 01:55,309.19
364238089115601,05/05/2011 01:56,309.2
364238089115601,05/05/2011 01:57,309.19
364238089115601,05/05/2011 01:58,309.18
364238089115601,05/05/2011 01:59,309.19
364238089115601,05/05/2011 02:00,309.2
364238089115601,05/05/2011 02:01,309.19
364238089115601,05/05/2011 02:02,309.2
364238089115601,05/05/2011 02:03,309.2
364238089115601,05/05/2011 02:04,309.2
364238089115601,05/05/2011 02:05,309.21
364238089115601,05/05/2011 02:06,309.2
364238089115601,05/05/2011 02:07,309.21
364238089115601,05/05/2011 02:08,309.21
364238089115601,05/05/2011 02:09,309.2
364238089115601,05/05/2011 02:10,309.2
364238089115601,05/05/2011 02:11,309.2
364238089115601,05/05/2011 02:12,309.2
364238089115601,05/05/2011 02:13,309.2
364238089115601,05/05/2011 02:14,309.21
364238089115601,05/05/2011 02:15,309.2
364238089115601,05/05/2011 02:16,309.21
364238089115601,05/05/2011 02:17,309.21
364238089115601,05/05/2011 02:18,309.21
364238089115601,05/05/2011 02:19,309.22
364238089115601,05/05/2011 02:20,309.21
364238089115601,05/05/2011 02:21,309.21
364238089115601,05/05/2011 02:22,309.21
364238089115601,05/05/2011 02:23,309.21
364238089115601,05/05/2011 02:24,309.2
364238089115601,05/05/2011 02:25,309.21
364238089115601,05/05/2011 02:26,309.22
364238089115601,05/05/2011 02:27,309.21
364238089115601,05/05/2011 02:28,309.22
364238089115601,05/05/2011 02:29,309.22
364238089115601,05/05/2011 02:30,309.22
364238089115601,05/05/2011 02:31,309.22
364238089115601,05/05/2011 02:32,309.22
364238089115601,05/05/2011 02:33,309.21
364238089115601,05/05/2011 02:34,309.23
364238089115601,05/05/2011 02:35,309.22
364238089115601,05/05/2011 02:36,309.22
364238089115601,05/05/2011 02:37,309.22
364238089115601,05/05/2011 02:38,309.22
364238089115601,05/05/2011 02:39,309.21
364238089115601,05/05/2011 02:40,309.22
364238089115601,05/05/2011 02:41,309.22
364238089115601,05/05/2011 02:42,309.22
364238089115601,05/05/2011 02:43,309.21
364238089115601,05/05/2011 02:44,309.23
364238089115601,05/05/2011 02:45,309.23
364238089115601,05/05/2011 02:46,309.23
364238089115601,05/05/2011 02:47,309.23
364238089115601,05/05/2011 02:48,309.24
364238089115601,05/05/2011 02:49,309.23
364238089115601,05/05/2011 02:50,309.23
364238089115601,05/05/2011 02:51,309.23
364238089115601,05/05/2011 02:52,309.23
364238089115601,05/05/2011 02:53,309.24
364238089115601,05/05/2011 02:54,309.23
364238089115601,05/05/2011 02:55,309.22
364238089115601,05/05/2011 02:56,309.24
364238089115601,05/05/2011 02:57,309.24
364238089115601,05/05/2011 02:58,309.24
364238089115601,05/05/2011 02:59,309.23
364238089115601,05/05/2011 03:00,309.25
364238089115601,05/05/2011 03:01,309.23
364238089115601,05/05/2011 03:02,309.24
364238089115601,05/05/2011 03:03,309.24
364238089115601,05/05/2011 03:04,309.24
364238089115601,05/05/2011 03:05,309.24
364238089115601,05/05/2011 03:06,309.25
364238089115601,05/05/2011 03:07,309.24
364238089115601,05/05/2011 03:08,309.23
364238089115601,05/05/2011 03:09,309.25
364238089115601,05/05/2011 03:10,309.24
364238089115601,05/05/2011 03:11,309.24
364238089115601,05/05/2011 03:12,309.24
364238089115601,05/05/2011 03:13,309.24
364238089115601,05/05/2011 03:14,309.25
364238089115601,05/05/2011 03:15,309.24
364238089115601,05/05/2011 03:16,309.24
364238089115601,05/05/2011 03:17,309.25
364238089115601,05/05/2011 03:18,309.25
364238089115601,05/05/2011 03:19,309.25
364238089115601,05/05/2011 03:20,309.25
364238089115601,05/05/2011 03:21,309.25
364238089115601,05/05/2011 03:22,309.25
364238089115601,05/05/2011 03:23,309.26
364238089115601,05/05/2011 03:24,309.26
364238089115601,05/05/2011 03:25,309.26
364238089115601,05/05/2011 03:26,309.26
364238089115601,05/05/2011 03:27,309.26
364238089115601,05/05/2011 03:28,309.26
364238089115601,05/05/2011 03:29,309.26